User: anonymous   Login
Location: Unspecified
(0.0000°N, 0.0000°E)
Time: 07:17:57
(UTC+00:00)
Language:

CORVUS BC2 - Orbit

View from above orbital plane
View from above orbital plane
View from above satellite
View from above satellite

Ground track
Ground track

The orbit data is extracted from the following two-line orbital elements,

1 42846U 17042X   18203.62124774 +.00000187 +00000-0 +23821-4 0  9991
2 42846 097.5940 105.2108 0011204 079.8898 280.3584 14.91834976055657
Epoch (UTC): 22 July 2018 14:54:35
Eccentricity: 0.0011204
inclination: 97.5940°
perigee height: 584 km
apogee height: 600 km
right ascension of ascending node: 105.2108°
argument of perigee: 79.8898°
revolutions per day: 14.91834976
mean anomaly at epoch: 280.3584°
orbit number at epoch: 5565

The dashed part of the orbit path shows where the satellite is in the earth's shadow,  

DLR